Terminal Aerodrome Forecast
Issued by NWS Aberdeen, SD

Home | Current Version | Previous Version | Text Only | Print | Product List | Glossary On
Versions: 1 2 3 4 5 6 7 8 9 10 11 12 13 14 15 16 17 18 19 20 21 22 23 24 25 26 27 28 29 30 31 32 33 34 35 36 37 38 39 40
000
FTUS43 KABR 221556 AAB
TAFABR
TAF AMD
KABR 221556Z 2216/2312 01018KT P6SM OVC004
     FM221900 01013KT P6SM OVC008
     FM222100 01013KT P6SM OVC010
     FM230400 35007KT P6SM BKN008
     FM231100 VRB03KT P6SM BKN015=

USA.gov is the U.S. government's official web portal to all federal, state and local government web resources and services.